TimeEDT,TemperatureF,Dew PointF,Humidity,Sea Level PressureIn,VisibilityMPH,Wind Direction,Wind SpeedMPH,Gust SpeedMPH,PrecipitationIn,Events,Conditions,WindDirDegrees,DateUTC
12:15 AM,52.7,49.5,89,30.04,10.0,NE,5.8,-,N/A,,Clear,50,2013-07-25 04:15:00
12:35 AM,53.6,50.5,89,30.05,10.0,North,3.5,-,N/A,,Clear,10,2013-07-25 04:35:00
12:54 AM,52.7,49.8,90,30.06,10.0,Calm,Calm,-,N/A,,Clear,0,2013-07-25 04:54:00
1:15 AM,52.7,50.0,91,30.05,10.0,North,4.6,-,N/A,,Clear,350,2013-07-25 05:15:00
1:35 AM,52.7,49.5,89,30.05,10.0,NNE,3.5,-,N/A,,Clear,20,2013-07-25 05:35:00
1:54 AM,52.7,49.1,88,30.05,10.0,ENE,4.6,-,N/A,,Clear,60,2013-07-25 05:54:00
2:15 AM,52.7,50.2,91,30.05,10.0,NNW,4.6,-,N/A,,Clear,340,2013-07-25 06:15:00
2:35 AM,50.7,48.4,92,30.05,10.0,NE,4.6,-,N/A,,Clear,40,2013-07-25 06:35:00
2:54 AM,50.4,48.2,92,30.04,10.0,ENE,4.6,-,N/A,,Clear,60,2013-07-25 06:54:00
3:15 AM,50.2,48.2,93,30.04,10.0,Calm,Calm,-,N/A,,Clear,0,2013-07-25 07:15:00
3:35 AM,52.5,50.7,94,30.04,10.0,NE,3.5,-,N/A,,Clear,50,2013-07-25 07:35:00
3:54 AM,50.5,49.1,95,30.04,10.0,Calm,Calm,-,N/A,,Clear,0,2013-07-25 07:54:00
4:15 AM,52.7,51.3,95,30.04,10.0,NE,3.5,-,N/A,,Clear,40,2013-07-25 08:15:00
4:34 AM,52.7,51.1,94,30.04,10.0,Calm,Calm,-,N/A,,Clear,0,2013-07-25 08:34:00
4:55 AM,50.7,48.9,94,30.04,10.0,Calm,Calm,-,N/A,,Clear,0,2013-07-25 08:55:00
5:15 AM,50.2,48.4,94,30.04,10.0,Calm,Calm,-,N/A,,Clear,0,2013-07-25 09:15:00
5:34 AM,49.1,47.1,93,30.05,10.0,Calm,Calm,-,N/A,,Clear,0,2013-07-25 09:34:00
5:55 AM,48.2,46.4,93,30.05,10.0,North,3.5,-,N/A,,Clear,360,2013-07-25 09:55:00
6:14 AM,47.7,46.0,94,30.06,10.0,Calm,Calm,-,N/A,,Clear,0,2013-07-25 10:14:00
6:35 AM,48.6,46.6,93,30.06,10.0,Calm,Calm,-,N/A,,Clear,0,2013-07-25 10:35:00
6:55 AM,48.2,46.4,93,30.06,10.0,Calm,Calm,-,N/A,,Clear,0,2013-07-25 10:55:00
7:14 AM,50.4,48.2,92,30.06,10.0,Calm,Calm,-,N/A,,Scattered Clouds,0,2013-07-25 11:14:00
7:35 AM,53.8,50.9,90,30.06,10.0,Calm,Calm,-,N/A,,Mostly Cloudy,0,2013-07-25 11:35:00
7:55 AM,55.4,51.4,87,30.06,10.0,Calm,Calm,-,N/A,,Mostly Cloudy,0,2013-07-25 11:55:00
8:14 AM,56.8,51.8,83,30.07,10.0,Calm,Calm,-,N/A,,Overcast,0,2013-07-25 12:14:00
8:35 AM,57.7,52.7,83,30.07,10.0,Calm,Calm,-,N/A,,Overcast,0,2013-07-25 12:35:00
8:55 AM,-9999,-9999,N/A,-9999,-9999.0,North,-9999.0,-,N/A,,Unknown,0,2013-07-25 12:55:00
9:15 AM,-9999,-9999,N/A,-9999,-9999.0,North,-9999.0,-,N/A,,Unknown,0,2013-07-25 13:15:00
9:35 AM,-9999,-9999,N/A,-9999,-9999.0,North,-9999.0,-,N/A,,Unknown,0,2013-07-25 13:35:00
9:55 AM,65.8,55.4,69,30.08,10.0,SSW,3.5,-,N/A,,Clear,200,2013-07-25 13:55:00
10:15 AM,67.5,55.6,66,30.08,10.0,SW,4.6,-,N/A,,Scattered Clouds,220,2013-07-25 14:15:00
10:35 AM,69.4,56.7,64,30.08,10.0,WSW,3.5,-,N/A,,Scattered Clouds,240,2013-07-25 14:35:00
10:55 AM,70.0,54.7,58,30.08,10.0,WSW,3.5,-,N/A,,Clear,240,2013-07-25 14:55:00
11:15 AM,71.8,51.3,48,30.08,10.0,SW,6.9,-,N/A,,Scattered Clouds,230,2013-07-25 15:15:00
11:35 AM,72.9,50.7,46,30.08,10.0,SW,5.8,-,N/A,,Scattered Clouds,230,2013-07-25 15:35:00
11:55 AM,75.2,53.1,46,30.08,10.0,WSW,4.6,-,N/A,,Clear,250,2013-07-25 15:55:00
12:15 PM,75.2,53.4,47,30.08,10.0,SW,3.5,-,N/A,,Clear,230,2013-07-25 16:15:00
12:35 PM,75.2,54.0,47,30.08,10.0,SSW,4.6,-,N/A,,Clear,210,2013-07-25 16:35:00
12:55 PM,75.2,54.0,47,30.08,10.0,WSW,5.8,-,N/A,,Clear,250,2013-07-25 16:55:00
1:15 PM,75.2,54.0,47,30.08,10.0,WSW,6.9,-,N/A,,Clear,240,2013-07-25 17:15:00
1:35 PM,75.2,54.3,48,30.07,10.0,WSW,5.8,-,N/A,,Clear,250,2013-07-25 17:35:00
1:55 PM,75.2,54.3,48,30.06,10.0,SW,6.9,-,N/A,,Clear,230,2013-07-25 17:55:00
2:15 PM,75.2,55.4,50,30.06,10.0,WSW,8.1,-,N/A,,Clear,240,2013-07-25 18:15:00
2:35 PM,75.2,54.1,48,30.05,10.0,WSW,5.8,-,N/A,,Clear,240,2013-07-25 18:35:00
2:55 PM,75.2,54.1,48,30.04,10.0,SW,5.8,-,N/A,,Clear,230,2013-07-25 18:55:00
3:15 PM,75.6,55.4,49,30.04,10.0,WSW,4.6,-,N/A,,Clear,240,2013-07-25 19:15:00
3:35 PM,75.9,54.9,48,30.04,10.0,WSW,3.5,-,N/A,,Clear,250,2013-07-25 19:35:00
3:55 PM,77.2,57.6,51,30.04,10.0,WSW,6.9,-,N/A,,Clear,240,2013-07-25 19:55:00
4:15 PM,75.7,57.7,53,30.04,10.0,WSW,6.9,-,N/A,,Clear,240,2013-07-25 20:15:00
4:34 PM,77.5,57.4,50,30.04,10.0,WSW,9.2,-,N/A,,Clear,240,2013-07-25 20:34:00
4:55 PM,77.5,56.5,48,30.03,10.0,WSW,6.9,-,N/A,,Clear,250,2013-07-25 20:55:00
5:15 PM,76.8,57.4,51,30.02,10.0,SW,5.8,-,N/A,,Clear,230,2013-07-25 21:15:00
5:35 PM,76.6,58.3,53,30.02,10.0,WSW,8.1,-,N/A,,Clear,240,2013-07-25 21:35:00
5:55 PM,75.2,57.6,54,30.02,10.0,West,4.6,-,N/A,,Clear,270,2013-07-25 21:55:00
6:15 PM,75.2,57.4,54,30.02,10.0,WSW,4.6,-,N/A,,Clear,240,2013-07-25 22:15:00
6:35 PM,75.2,57.7,54,30.01,10.0,SW,3.5,-,N/A,,Clear,230,2013-07-25 22:35:00
6:55 PM,75.2,58.8,57,30.01,10.0,WSW,4.6,-,N/A,,Clear,240,2013-07-25 22:55:00
7:15 PM,75.2,59.5,58,30.00,10.0,WSW,3.5,-,N/A,,Clear,240,2013-07-25 23:15:00
7:35 PM,75.2,57.9,55,30.00,10.0,Calm,Calm,-,N/A,,Clear,0,2013-07-25 23:35:00
7:55 PM,75.2,58.3,56,30.00,10.0,Calm,Calm,-,N/A,,Clear,0,2013-07-25 23:55:00
8:14 PM,72.3,59.5,64,30.00,10.0,Calm,Calm,-,N/A,,Clear,0,2013-07-26 00:14:00
8:35 PM,70.0,59.9,70,30.00,10.0,Calm,Calm,-,N/A,,Clear,0,2013-07-26 00:35:00
8:55 PM,70.0,59.2,68,30.01,10.0,Calm,Calm,-,N/A,,Clear,0,2013-07-26 00:55:00
9:14 PM,70.0,59.4,69,29.99,10.0,Calm,Calm,-,N/A,,Clear,0,2013-07-26 01:14:00
9:35 PM,69.8,60.4,72,29.99,10.0,ESE,3.5,-,N/A,,Clear,120,2013-07-26 01:35:00
9:55 PM,70.0,60.1,71,29.99,10.0,Calm,Calm,-,N/A,,Clear,0,2013-07-26 01:55:00
10:15 PM,67.5,59.5,76,29.99,10.0,Calm,Calm,-,N/A,,Clear,0,2013-07-26 02:15:00
10:35 PM,67.5,59.0,74,29.99,10.0,NNE,3.5,-,N/A,,Clear,30,2013-07-26 02:35:00
10:55 PM,66.9,59.2,76,30.00,10.0,Calm,Calm,-,N/A,,Clear,0,2013-07-26 02:55:00
11:15 PM,64.9,58.1,78,30.00,10.0,Calm,Calm,-,N/A,,Clear,0,2013-07-26 03:15:00
11:35 PM,65.5,58.3,77,30.00,10.0,Calm,Calm,-,N/A,,Clear,0,2013-07-26 03:35:00
11:55 PM,65.1,58.5,79,30.00,10.0,Calm,Calm,-,N/A,,Mostly Cloudy,0,2013-07-26 03:55:00